GFSFLT1_sfc_rhum_276.txt.gz
RH
34 41 41 43 49 56 57 66 71 71 83 88 88 86 84 85 84 94 95 94 95 97 97 97 92 82 78 86 90 89 94 94 90
40 42 42 43 49 55 59 72 74 76 82 87 87 85 88 90 91 95 96 94 94 97 94 81 80 80 90 91 88 91 93 95 93
42 43 45 49 53 54 62 69 72 75 79 85 88 87 89 92 93 95 91 91 82 82 83 82 82 89 86 88 88 89 90 92 91
38 45 50 54 54 52 58 65 73 79 84 90 84 86 90 94 96 91 82 79 84 82 84 85 87 88 88 91 92 89 90 90 89
38 44 50 52 56 55 63 70 77 80 82 81 79 84 92 96 94 90 84 81 88 86 86 88 84 87 85 91 87 84 89 87 88
49 48 53 54 57 57 59 74 77 77 79 78 82 90 93 95 94 86 84 85 86 83 86 86 88 87 88 89 85 82 89 84 86
49 43 49 54 56 56 56 68 73 74 77 80 85 86 90 94 88 84 83 84 86 83 84 87 87 87 83 84 82 84 81 86 87
38 48 50 51 53 55 56 67 71 71 73 80 82 92 88 93 92 90 84 84 87 88 85 85 86 86 86 84 75 74 83 80 87
42 38 44 46 49 52 56 60 69 68 72 77 80 85 91 90 92 92 85 88 89 86 88 85 84 84 83 83 60 82 78 74 83
42 39 42 43 46 49 51 54 59 66 76 77 78 88 88 91 90 88 82 86 90 91 91 87 87 87 87 89 74 80 74 75 88
44 45 47 46 44 45 48 51 66 68 85 88 86 86 84 91 90 78 85 90 92 92 93 92 92 89 88 91 83 86 80 77 87
81 86 88 71 47 52 86 80 87 92 93 92 94 95 94 92 88 80 91 94 94 93 93 92 93 90 86 86 88 90 84 83 91
84 84 86 85 69 86 90 97 95 95 94 93 93 91 91 95 92 93 92 93 96 92 91 91 89 89 92 87 92 92 90 89 96
87 86 86 89 90 95 96 94 94 97 95 94 93 93 96 97 96 96 96 96 94 92 92 93 91 90 90 90 91 92 93 92 95
96 91 91 93 95 97 97 96 95 97 95 92 91 95 98 98 98 95 91 94 95 93 94 92 91 92 94 96 94 93 94 94 92
90 92 95 97 98 98 97 94 89 92 91 93 91 99 99 98 95 94 93 95 95 96 95 96 95 97 97 97 96 97 92 93 91
97 95 97 96 97 98 98 94 90 93 95 95 98 97 98 97 96 98 97 97 95 97 98 98 98 98 97 97 96 98 98 98 97
97 95 96 95 94 97 98 96 94 95 95 96 96 98 97 98 98 98 98 97 97 97 96 95 98 98 97 91 89 92 96 94 93
96 97 96 96 97 97 98 97 97 95 94 97 97 97 99 99 99 99 98 97 97 96 95 92 92 84 85 80 82 78 95 93 90
94 95 96 96 96 96 97 97 98 98 99 99 99 95 96 98 98 98 98 98 98 98 83 91 85 81 80 85 77 84 82 80 84

GFSFLT1_sfc_rhum_279.txt.gz
RH
37 48 45 49 50 58 61 66 70 73 79 83 90 92 89 87 88 96 95 95 97 97 98 98 95 84 87 92 91 95 95 94 92
44 38 47 50 48 58 63 70 74 73 79 85 91 90 90 93 92 93 95 94 95 98 97 91 85 84 93 92 92 93 92 95 93
51 54 52 50 53 58 62 69 74 74 79 86 91 91 92 90 93 95 96 96 95 96 91 85 86 93 92 91 91 91 90 93 93
43 54 55 55 57 59 63 72 77 81 85 90 92 88 93 95 97 97 96 86 89 88 85 86 90 92 92 92 91 90 92 91 90
45 53 56 60 62 65 73 77 80 82 82 84 82 87 90 95 97 94 92 84 83 86 87 91 92 92 91 93 91 90 91 89 88
46 57 65 68 68 67 70 75 80 82 84 83 82 86 91 97 97 86 79 83 89 89 93 92 92 91 92 92 88 86 91 89 87
54 60 65 66 64 63 67 72 78 81 85 83 86 88 94 97 96 88 80 84 90 90 93 92 93 93 91 90 87 87 88 88 88
56 60 65 62 60 62 64 75 78 78 79 83 86 94 93 96 96 94 81 85 90 90 91 91 90 91 92 90 86 79 89 86 88
55 56 54 56 57 61 63 66 75 78 84 91 90 92 94 96 95 96 87 86 90 92 92 93 93 91 90 85 68 85 81 78 84
48 49 45 54 58 59 62 66 76 78 90 88 93 96 97 98 98 96 94 94 93 93 94 92 92 92 93 91 78 84 80 77 89
78 79 72 61 55 58 68 81 92 87 93 94 96 96 95 96 96 97 98 97 94 94 95 94 95 93 92 92 83 87 81 79 88
92 92 89 90 87 75 91 95 91 93 96 96 95 97 97 97 95 96 98 98 97 97 94 95 94 92 93 92 90 90 87 86 91
89 87 95 93 87 88 92 95 90 92 97 97 97 97 97 95 95 95 95 97 98 98 95 92 93 93 92 88 90 92 91 91 96
91 90 93 96 97 99 98 97 96 97 97 96 97 94 94 94 94 91 93 95 97 98 97 95 95 92 93 93 91 92 94 94 96
91 94 94 95 97 97 98 97 97 96 97 95 94 98 98 98 98 98 98 96 98 93 91 93 94 95 95 96 93 94 94 95 94
98 98 99 98 99 98 98 96 94 96 97 97 98 98 99 97 96 98 99 98 96 94 94 95 97 97 96 96 95 97 96 95 94
97 98 98 97 98 97 98 97 96 96 97 98 97 97 98 98 99 99 99 99 99 96 97 97 96 98 97 96 97 97 98 98 99
97 98 98 97 97 98 99 96 96 95 95 96 97 98 98 99 99 99 99 96 96 94 95 93 96 97 96 96 96 84 96 98 99
97 98 96 98 98 98 99 98 98 97 94 97 98 98 99 99 99 99 98 98 97 100 99 100 100 98 97 94 85 87 89 98 98
100 98 99 99 99 99 99 99 98 99 99 94 97 99 98 96 96 99 98 98 98 98 88 96 93 86 88 89 90 94 89 93 92

GFSFLT1_sfc_rhum_285.txt.gz
RH
27 27 26 31 39 44 48 48 51 54 62 70 72 71 74 74 74 66 64 70 68 66 66 68 76 72 69 70 68 68 73 62 59
24 25 28 33 38 43 47 49 54 56 63 61 66 61 71 74 74 73 66 74 73 65 73 69 77 71 71 68 69 71 74 60 65
26 31 36 36 38 40 43 44 48 53 56 59 60 56 62 62 65 71 69 70 74 74 72 77 78 73 70 69 68 70 72 65 68
24 33 34 39 39 40 41 43 46 55 57 57 54 54 57 60 61 63 70 67 73 75 73 79 78 77 73 72 71 70 72 72 71
25 38 38 38 42 44 45 47 45 49 53 52 55 58 66 65 66 67 65 71 72 76 79 75 76 74 74 73 72 72 73 70 66
31 38 44 43 44 50 51 50 52 49 53 56 53 64 65 65 66 66 67 70 71 76 78 76 68 73 75 74 72 72 73 72 70
30 39 47 46 48 51 56 60 64 63 60 57 63 63 63 68 67 65 65 71 78 78 80 76 71 70 72 72 71 68 68 68 69
37 39 45 48 50 56 63 66 69 70 63 66 64 71 66 73 74 77 79 83 84 86 84 79 72 73 72 71 66 56 68 66 65
40 41 44 47 51 55 60 62 69 68 69 67 69 74 71 80 89 90 88 86 85 86 81 78 76 75 75 74 57 77 82 71 63
58 58 59 58 55 54 57 58 64 66 68 70 76 85 91 94 94 94 96 96 96 93 91 86 79 75 75 75 72 87 87 85 58
62 63 64 66 65 70 70 60 63 68 73 82 88 90 90 91 95 97 99 97 96 96 87 91 90 76 76 76 71 91 91 85 62
65 67 67 67 66 75 80 80 79 83 88 89 91 91 87 93 90 95 90 89 86 83 88 87 97 92 80 78 73 90 89 82 64
63 67 73 74 71 72 78 83 80 86 89 89 92 93 94 95 96 92 86 83 84 80 84 85 94 97 94 84 85 92 90 80 66
65 71 77 76 82 86 88 82 80 85 86 92 92 94 96 95 90 91 90 88 82 85 89 95 97 94 98 94 85 87 94 90 66
66 73 81 79 86 87 86 80 82 89 90 93 96 93 89 86 85 85 93 96 95 93 97 97 98 99 99 99 97 93 96 94 87
69 76 89 76 76 80 81 78 77 80 91 88 83 75 79 79 82 81 84 96 98 99 98 99 99 99 100 100 98 90 95 96 95
73 69 71 67 68 74 78 76 76 79 79 82 80 78 80 84 86 90 87 86 88 98 99 99 100 99 98 99 98 96 88 72 78
72 73 73 70 69 76 83 84 81 74 75 76 76 81 90 95 93 99 98 99 97 94 93 97 97 97 97 94 86 79 86 80 72
76 79 81 86 86 91 93 89 88 85 78 78 76 84 98 99 98 99 99 86 76 94 97 99 100 99 98 96 92 90 91 93 100
96 90 91 91 88 82 82 82 79 80 84 80 78 80 97 98 98 97 99 99 98 81 86 94 96 96 94 94 96 90 93 99 97

GFSFLT1_sfc_rhum_291.txt.gz
RH
11 11 11 13 18 20 26 27 30 33 42 60 56 57 61 61 60 49 48 52 48 46 43 42 46 52 53 54 56 52 50 46 47
11 11 11 14 17 20 26 28 32 35 41 49 50 46 54 58 60 60 52 56 58 51 62 50 53 54 60 55 56 53 50 41 48
11 11 13 15 17 20 24 25 28 32 37 46 46 39 43 47 50 57 54 50 54 54 57 60 54 64 58 57 57 54 55 44 49
11 13 14 16 17 19 22 26 27 33 35 39 40 40 40 45 42 44 53 48 52 56 58 67 70 77 69 61 59 54 58 60 54
13 14 17 17 18 20 23 27 25 30 33 32 36 38 48 40 43 44 40 51 49 53 61 63 78 78 77 65 61 57 61 57 46
17 18 19 19 20 25 25 26 27 25 30 32 28 40 39 43 40 42 43 43 48 52 60 64 70 79 79 68 61 60 61 60 57
17 20 24 20 21 26 32 35 36 38 32 31 36 33 38 43 44 41 40 46 55 56 75 72 72 74 82 68 61 55 56 59 60
21 23 22 26 26 33 37 42 46 47 46 43 39 42 42 47 52 52 54 57 64 72 67 71 70 71 69 66 57 44 57 55 56
32 35 37 39 42 43 46 46 49 50 50 50 50 53 52 56 64 73 71 69 64 77 83 90 83 82 76 76 53 61 72 60 50
36 37 39 41 44 48 51 48 52 50 56 59 66 88 89 89 87 94 95 88 86 88 84 83 85 74 77 79 72 91 78 76 47
40 41 43 45 44 53 54 55 60 64 69 76 81 87 90 91 92 93 95 91 88 86 86 92 79 71 75 82 86 85 86 82 64
40 41 41 40 41 49 60 65 68 70 74 81 81 84 88 91 90 88 88 81 78 77 75 74 70 66 81 84 83 88 92 88 63
39 42 43 44 44 48 56 66 64 72 73 73 76 78 77 76 73 71 68 72 76 73 71 72 69 80 81 83 89 93 93 82 53
42 43 47 50 53 60 67 66 64 70 70 74 71 74 70 70 71 67 72 80 80 80 78 81 82 87 87 88 91 98 96 96 84
39 42 43 48 62 72 64 59 60 66 76 76 66 68 69 76 78 69 75 82 81 90 84 87 92 95 96 99 99 99 99 98 99
40 41 42 43 50 57 57 59 60 66 75 70 76 76 79 72 78 67 64 72 80 84 94 95 98 99 99 99 99 99 100 100 100
38 38 42 42 48 58 66 58 58 62 68 66 66 74 68 64 64 71 76 60 49 58 61 70 84 89 97 96 99 99 99 96 96
41 43 44 48 57 64 69 68 69 57 58 69 68 60 57 54 58 72 70 73 68 52 75 72 53 56 61 69 80 88 96 95 95
48 51 56 58 62 68 64 58 58 62 53 53 63 48 45 50 49 57 48 53 61 93 91 92 93 93 87 71 93 98 99 100 99
73 58 55 56 58 58 58 60 60 58 56 54 55 50 50 42 52 43 68 62 78 62 81 98 100 97 90 94 98 96 95 96 98